sat.trackr.live / text

‹ back to catalog

STARLINK-4527

NORAD 53436 · 2022-097BA

PAYLOAD ACTIVE UNKNOWN

§ Identity

Operator
Country
US
Launch date
2022-08-10
Launch site
AFETR
Launch vehicle
Mass (kg)
RCS (m²)

Purposes: comms

External: N2YO · Heavens-Above · Gunter

§ Orbital elements

Epoch: 2026-09-19T17:19:30.194400Z

Period
93.79 min
Inclination
53.1592°
Eccentricity
0.0001307
Mean motion
15.35399980 rev/d
Perigee alt
458.8 km
Apogee alt
460.6 km
Semi-major
6,837.9 km
B*
2.1322e-5
RAAN
297.1551°
Arg perigee
81.3939°
Mean anomaly
278.7212°
Rev number
22,829

§ Raw data

STARLINK-45271 53436U 22097BA  26262.72187725  .00000363  00000+0  21322-4 0  99932 53436  53.1592 297.1551 0001307  81.3939 278.7212 15.35399980228296

JSON: /api/v1/satellites/53436 · /tle

For live sub-satellite position, see the globe view (requires WebGL).

§ Visibility from observer

Set your observer location to see the next 7 days of passes ≥ 10°. The values pass through the URL so the page stays shareable.

No JS? Fill the form by hand. The geolocation button needs JavaScript.